Regional Weather Roundup
Issued by NWS Little Rock, AR

Home | Current Version | Previous Version | Text Only | Print | Product List | Glossary Off
Versions: 1 2 3 4 5 6 7 8 9 10 11 12 13 14 15 16 17 18 19 20 21 22 23 24 25 26 27 28 29 30 31 32 33 34 35 36 37 38 39 40 41 42 43 44 45 46 47 48 49

000
ASUS44 KLZK 311405
RWRLZK

WEATHER ROUNDUP FOR ARKANSAS
NATIONAL WEATHER SERVICE LITTLE ROCK AR
900 AM CDT MON AUG 31 2015

NOTE: "FAIR" INDICATES FEW OR NO CLOUDS BELOW 12,000 FEET WITH NO
SIGNIFICANT WEATHER AND/OR OBSTRUCTIONS TO VISIBILITY.

ARZ001-003-010-029-311500-
NORTHWEST ARKANSAS

CITY           SKY/WX    TMP DP  RH WIND       PRES   REMARKS
FAYETTEVILLE   SUNNY     75  70  84 S5        30.08R
FORT SMITH     SUNNY     75  69  81 NE6       30.05R HAZE
BENTONVILLE    SUNNY     77  66  69 S8        30.08R
ROGERS         SUNNY     76  69  79 S7        30.08R
SILOAM SPGS    SUNNY     77  64  65 S12       30.05S
HIGHFILL       SUNNY     76  69  79 S9        30.07R
SPRINGDALE     MOSUNNY   77  68  73 SE6       30.10R
$$

ARZ004-005-016-311500-
NORTH CENTRAL ARKANSAS

CITY           SKY/WX    TMP DP  RH WIND       PRES   REMARKS
BATESVILLE     MOSUNNY   75  70  83 CALM      30.09S
FLIPPIN        SUNNY     73  66  78 E3        30.07S
MTN HOME       SUNNY     75  69  81 S6        30.09R
$$

ARZ040-041-311500-
WEST CENTRAL ARKANSAS

CITY           SKY/WX    TMP DP  RH WIND       PRES   REMARKS
MENA           MOSUNNY   77  70  78 CALM      30.09R
MOUNT IDA      SUNNY     76  70  82 CALM      30.06R
$$

ARZ009-017-025-026-028-311500-
NORTHEAST ARKANSAS

CITY           SKY/WX    TMP DP  RH WIND       PRES   REMARKS
JONESBORO      SUNNY     74  69  85 S8        30.10R
NEWPORT        SUNNY     76  70  82 SE3       30.10R
WALNUT RIDGE   MOSUNNY   73  68  83 S5        30.10R
BLYTHEVILLE    MOSUNNY   74  69  85 S7        30.11R
$$

ARZ022-023-033-042-044-311500-
CENTRAL ARKANSAS

CITY           SKY/WX    TMP DP  RH WIND       PRES   REMARKS
LITTLE ROCK    MOSUNNY   77  71  82 CALM      30.08R
N LITTLE ROCK  MOSUNNY   76  72  87 SE5       30.08R
JACKSONVILLE   MOSUNNY   72  72 100 E3        30.07R
SEARCY         PTSUNNY   74  71  91 E3        30.10R
HOT SPRINGS    SUNNY     76  69  79 CALM      30.07R
RUSSELLVILLE   SUNNY     77  70  79 VRB3      30.06R
$$

ARZ036-311500-
EAST ARKANSAS

CITY           SKY/WX    TMP DP  RH WIND       PRES   REMARKS
WEST MEMPHIS   SUNNY     75  70  84 SE7       30.09R
$$

ARZ050-053-066-070-073-311500-
SOUTHWEST ARKANSAS

CITY           SKY/WX    TMP DP  RH WIND       PRES   REMARKS
ARKADELPHIA    FAIR      77  70  79 VRB3      30.07R
CAMDEN         SUNNY     77  68  73 CALM      30.06R HAZE
TEXARKANA      SUNNY     79  69  71 CALM      30.07R
EL DORADO      MOSUNNY   76  67  73 S5        30.08R
DE QUEEN       PTSUNNY   78  70  76 CALM      30.04R HAZE
$$

ARZ056-057-069-311500-
SOUTHEAST ARKANSAS

CITY           SKY/WX    TMP DP  RH WIND       PRES   REMARKS
PINE BLUFF     SUNNY     75  70  84 CALM      30.07R
STUTTGART      MOSUNNY   75  66  73 SE6       30.07R
MONTICELLO     SUNNY     76  69  79 SE3       30.06R

$$




USA.gov is the U.S. government's official web portal to all federal, state and local government web resources and services.